Regional Weather Roundup
Issued by NWS Charleston, SC

Current Version | Previous Version | Graphics & Text | Print | Product List | Glossary On
Versions: 1 2 3 4 5 6 7 8 9 10 11 12 13 14 15 16 17 18 19 20 21 22 23 24 25 26 27 28 29 30 31 32 33 34 35 36 37 38 39 40 41 42 43 44 45 46 47 48 49 50
000
ASUS42 KCHS 201525
RWRCHS

REGIONAL WEATHER ROUNDUP
NATIONAL WEATHER SERVICE CHARLESTON SC
1100 AM EDT SAT SEP 20 2014

NOTE: "FAIR" INDICATES FEW OR NO CLOUDS BELOW 12,000 FEET WITH NO
SIGNIFICANT WEATHER AND/OR OBSTRUCTIONS TO VISIBILITY.

NOT ALL STATIONS ARE QUALITY CONTROLLED BY THE NATIONAL
WEATHER SERVICE. USE DATA WITH CAUTION...ESPECIALLY
DEWPOINT OBSERVATIONS.

SCZ027-030-031-034>040-042>050-201600-
...SOUTH CAROLINA...

CITY           SKY/WX    TMP DP  RH WIND       PRES   REMARKS
N CHARLESTON   CLOUDY    73  65  75 NE17      30.06S
WATERFRONT PRK   N/A     73 N/A N/A N22         N/A
FORT JOHNSON   NOT AVBL
MOUNT PLEASANT FAIR      72  68  88 NE7       30.06S
JOHNS ISLAND   MOSUNNY   72  72 100 N9        30.05S
PINOPOLIS        N/A     72  64  78 NE16      30.02R
MONCKS CORNER    N/A     72  66  83 NE10      30.08S
SUMMERVILLE    FAIR      70  66  88 N9G17     30.09S
BEAUFORT MCAS  CLOUDY    71  67  87 W10       30.05S
BEAUFORT ARPT  CLOUDY    72  70  94 N15       30.04S
HILTON HEAD IS PTSUNNY   72  70  94 N12G24    30.05S
GEORGETOWN     NOT AVBL
WALTERBORO     CLOUDY    72  70  94 NE9       30.09R
ORANGEBURG     MOSUNNY   73  62  68 NE12G17   30.12S
BARNWELL       FAIR      73  64  73 NE12      30.11F
AIKEN          FAIR      75  66  73 NE12      30.16S
MANNING        FAIR      72  66  83 N7        30.11S
KINGSTREE      NOT AVBL
COLUMBIA       MOSUNNY   77  59  53 NE12G18   30.12F
SUMTER         MOSUNNY   71  59  66 NE13      30.13R
FLORENCE       CLOUDY    70  61  73 NE12      30.14S
MYRTLE BEACH   PTSUNNY   72  63  73 N18       30.09S
N MYRTLE BEACH CLOUDY    71  63  75 N10       30.08F

$$

GAZ063-065-086>088-099>101-113>116-118-119-134-136>141-150-201600-
...GEORGIA...

CITY           SKY/WX    TMP DP  RH WIND       PRES   REMARKS
SAVANNAH ARPT  CLOUDY    73  66  78 N14       30.04S
HUNTER AAF     CLOUDY    72  70  93 N10       30.01F
FORT STEWART   CLOUDY    73  68  83 N9        30.03R
STATESBORO     NOT AVBL
SYLVANIA       MOSUNNY   76  70  82 NE10      30.10R
CLAXTON        PTSUNNY   73  72  94 NE6       30.07S
THOMSON        SUNNY     77  70  80 NE6       30.19S
AUGUSTA-BUSH   SUNNY     77  65  66 NE9       30.11S
AUGUSTA-DANIEL SUNNY     77  64  64 N10       30.14R
SWAINSBORO     FAIR      77  72  83 NE6       30.10S
VIDALIA        CLOUDY    73  68  83 NE10G17   30.08S
ALMA           PTSUNNY   77  68  73 NE8       30.04R
WAYCROSS       CLOUDY    78  74  85 NE7       30.03R
JESUP          CLOUDY    77  72  83 NE6       30.03S
BRUNSWICK      CLOUDY    75  72  88 N6        30.00F
SAINT SIMONS   CLOUDY    76  71  85 NE8       29.99R

$$

SCZ027-028-034-036>038-045-046-048>050-GAZ119-141-201600-
...LAKE AND SUPPLEMENTAL COASTAL OBSERVATIONS...

STATION/POSITION TIME  TEMP    WIND        PRES    WAVE   SWELL
                       AIR SEA DIR/SP/G            HT/PER HT/PER/DIR
                 (UTC) (F)     (DEG/KT/KT) (MB)    (FT/S) (FT/S/D)
UPR LAKE MARION  NOT AVBL
WINYAH BAY       1500   71      20/  8     1018.0S
LAKE MURRAY      1400   71      30/  4/  8 1020.3S
ACE BASIN NERRS  1500   69      20/  4     1017.0S
FORT PULASKI     1500   72      10/ 17/ 21 1016.9S
SAPELO ISLAND    1500   76      50/ 10     1016.0S

$$

ANZ835-935-AMZ111-154-330-350-352-354-374-450-454-472-201600-
...C-MAN AND BUOY OBSERVATIONS...

STATION/POSITION TIME  TEMP    WIND        PRES    WAVE   SWELL
                       AIR SEA DIR/SP/G            HT/PER HT/PER/DIR
                 (UTC) (F)     (DEG/KT/KT) (MB)    (FT/S) (FT/S/D)
FOLLY BEACH CMAN 1500   72      30/ 21/ 23 1017.9R
BUOY 41004       1500   80 82   40/ 21/ 27 1015.1R   7/ 7   3/ 9
BUOY 41008       1500   78 83   60/ 21/ 25 1015.2R   6/ 6   3/ 40/21
5E ST. MARYS GA  1500      84                N/A     5/ 8
FRYING PAN BUOY  NOT AVBL
BUOY 41025       1500   77      70/ 14/ 19 1018.7S   9/10   7/ 70/10
CAPE LOOKOUT NC  1500   72      20/ 18/ 23 1019.2F
BUOY 41002       1430   76 82  110/ 21/ 25 1015.9F   7/ 6   2/120/16
BUOY 41010       1500   81 84  210/ 16/ 19 1012.8R   6/ 8   3/ 40/ 8
BUOY 41012       NOT AVBL
ST AUGUSTINE FL  1500   74      10/ 11/ 12 1014.9R
CAPERS NEARSHORE NOT AVBL
FRIPP NEARSHORE  NOT AVBL


$$



USA.gov is the U.S. government's official web portal to all federal, state and local government web resources and services.